Regional Weather Roundup
Issued by NWS

Home | Current Version | Previous Version | Text Only | Print | Product List | Glossary Off
Versions: 1 2 3 4 5 6 7 8 9 10 11 12 13 14 15 16 17 18 19 20 21 22 23 24 25 26 27 28 29 30 31 32 33 34 35 36 37 38 39 40 41 42 43 44 45 46 47 48 49 50

000
ASUS43 KDTX 171610
RWRMI
MICHIGAN HOURLY REGIONAL WEATHER ROUNDUP
NATIONAL WEATHER SERVICE DETROIT/PONTIAC MI
1200 PM EDT TUE OCT 17 2017

NOTE: "FAIR" INDICATES FEW OR NO CLOUDS BELOW 12,000 FEET WITH NO
SIGNIFICANT WEATHER AND/OR OBSTRUCTION TO VISIBILITY.

MIZ047>049-052>055-059>063-066>070-074>076-081>083-171700-
SOUTHEAST LOWER MICHIGAN

CITY           SKY/WX    TMP DP  RH WIND       PRES   REMARKS
ADRIAN         SUNNY     60  41  49 W12       30.25F
ALMA           SUNNY     62  40  44 SW17G31   30.12S
ANN ARBOR      SUNNY     61  43  51 SW13G24   30.21F
BAD AXE        SUNNY     62  38  42 SW17G24   30.10S
CARO           SUNNY     62  40  43 SW15G21   30.10F
DETROIT CITY   SUNNY     60  39  45 SW15G22   30.21F
DETROIT        MOSUNNY   61  41  47 SW15      30.23F
FLINT          SUNNY     63  40  42 SW15G24   30.15F
GROSSE ILE     SUNNY     61  42  48 SW13G18   30.23S
HILLSDALE      SUNNY     61  37  41 SW15      30.23S
HOWELL         SUNNY     62  39  43 SW15      30.18F

CITY           SKY/WX    TMP DP  RH WIND       PRES   REMARKS
JACKSON        SUNNY     60  39  45 SW23G30   30.21
LAMBERTVILLE   SUNNY     63  40  43 SW10      30.25S
LANSING        SUNNY     62  39  42 SW17G26   30.17F
LAPEER         FAIR      62  39  42 W18G25    30.15F
MASON          SUNNY     62  39  42 SW10G18   30.19S
MONROE         SUNNY     63  40  44 W15G21    30.23F
MT. CLEMENS    MOSUNNY   61  42  48 SW17      30.18
PONTIAC        PTSUNNY   60  41  49 SW12G21   30.18F
PORT HOPE        N/A     62  40  44 SW14G23   30.05F
PORT HURON     SUNNY     63  39  42 SW10G18   30.17F
TRI CITIES     CLOUDY    61  43  51 SW21G26   30.11S
MIDLAND        FAIR      63  45  52 SW12G20   30.09S
TROY           SUNNY     59  39  47 SW12G18   30.22S
SAGINAW HB     MOSUNNY   61  41  48 SW13G24   30.10S
$$
MIZ043>046-050>051-056>058-064>065-071>073-077>080-171700-
SOUTHWEST LOWER MICHIGAN

CITY           SKY/WX    TMP DP  RH WIND       PRES   REMARKS
BATTLE CREEK   SUNNY     62  42  47 SW17G23   30.20F
BENTON HARBOR  SUNNY     62  41  46 SW16G26   30.21S
BIG RAPIDS     SUNNY     63  45  52 W13       30.09S
COLDWATER      SUNNY     61  38  42 SW15G22   30.23F
FREMONT        FAIR      62  46  54 SW16G23   30.11S
HOLLAND        SUNNY     61  49  64 SW21G33   30.16S
GRAND RAPIDS   PTSUNNY   62  45  53 SW20      30.15S
IONIA          FAIR      63  41  44 SW17G29   30.13F
KALAMAZOO      SUNNY     63  40  42 SW12      30.21F
LUDINGTON      SUNNY     60  46  59 SW14      30.09S
MARSHALL       SUNNY     60  39  46 SW13G23   30.21S
MOUNT PLEASANT SUNNY     64  47  53 SW14G24   30.09S
MUSKEGON       MOSUNNY   64  49  57 SW17G25   30.13
SOUTH HAVEN    SUNNY     61  44  53 SW13G25   30.19S
$$
MIZ016>042-171700-
NORTHERN LOWER MICHIGAN

CITY           SKY/WX    TMP DP  RH WIND       PRES   REMARKS
ALPENA         SUNNY     61  46  57 W12G22    29.99
BEAVER ISLAND  SUNNY     60  47  62 W14       29.99R
BELLAIRE       SUNNY     60  47  60 SW12      30.02S
CADILLAC       SUNNY     63  45  52 SW17G23   30.06S
CHARLEVOIX     SUNNY     60  47  60 W15       30.03S
GAYLORD        SUNNY     58  43  57 W20       30.01F
GRAYLING       SUNNY     60  44  55 W9G20     30.04S
HARBOR SPRINGS SUNNY     60  46  58 W10G17    29.99S
HOUGHTON LAKE  SUNNY     60  45  57 W12G21    30.06S
MANISTEE       SUNNY     60  46  59 SW13      30.07
OSCODA         SUNNY     62  45  52 SW17G25   30.02S
PELLSTON       SUNNY     61  46  57 W15G22    29.99
ROGERS CITY    SUNNY     62  46  55 W14G21    29.98S
TRAVERSE CITY  PTSUNNY   62  46  55 W8G16     30.02F
$$
MIZ007>008-015-171700-
EASTERN UPPER MICHIGAN

CITY           SKY/WX    TMP DP  RH WIND       PRES   REMARKS
KINROSS        SUNNY     59  42  53 W12       29.96
MACKINAC ISLAN SUNNY     59  46  63 SW13G18   29.97R
NEWBERRY       MOSUNNY   56  43  61 W6        29.96S
S. S. MARIE    SUNNY     60  43  53 W12       29.95
MUNISING         N/A     61  45  55 NW6       29.97
$$
MIZ004>006-011>014-085-171700-
CENTRAL UPPER MICHIGAN

CITY           SKY/WX    TMP DP  RH WIND       PRES   REMARKS
MANISTIQUE     SUNNY     59  33  36 NW5       29.98R
ESCANABA       MOSUNNY   56  42  59 W6        30.00
MENOMINEE      MOSUNNY   57  43  59 VRB6      30.03
SAWYER-GWINN   SUNNY     59  41  51 W8        29.97R
$$
MIZ001>003-009>011-084-171700-
WESTERN UPPER MICHIGAN

CITY           SKY/WX    TMP DP  RH WIND       PRES   REMARKS
IRON MOUNTAIN  SUNNY     60  39  45 W7        29.99
HOUGHTON       SUNNY     59  42  53 W13       29.96R
COPPER HARBOR    N/A     60  37  42 NW8       29.93
IRONWOOD       MOSUNNY   59  41  51 SW5       29.99
$$

ABBREVIATIONS USED IN REMARKS
   TC - TEMPERATURE IN CELSIUS
  WCI - WIND CHILL INDEX
   HX - HEAT INDEX
  VSB - VISIBILITY





USA.gov is the U.S. government's official web portal to all federal, state and local government web resources and services.